N682B SLVR-SABE

Flight info

Callsign N682B
Flight time 2h 28m
Altitude 36000
Route KABOM UL404 ISOPO UT672 MULTA UW24 SNT SNT8Q
Aircraft C700/M-SBDGHM1RWXY/LB2

Departure

Time 2026-04-23 20:36
Airport Viru Viru International Airport (SLVR)

Arrival

Time 2026-04-23 23:05
Airport Aeroparque Jorge Newbery (SABE)
Time Latitude Longitude Altitude Speed Heading
2026-04-23 20:30 -17.64676 -63.13851 1225 ft 0 kts 58°
2026-04-23 20:31 -17.64683 -63.13862 1225 ft 2 kts 58°
2026-04-23 20:31 -17.64692 -63.13877 1225 ft 2 kts 57°
2026-04-23 20:31 -17.64702 -63.13890 1225 ft 2 kts 39°
2026-04-23 20:31 -17.64717 -63.13898 1225 ft 2 kts
2026-04-23 20:32 -17.64721 -63.13898 1225 ft 0 kts 342°
2026-04-23 20:32 -17.64720 -63.13898 1225 ft 0 kts 340°
2026-04-23 20:33 -17.64666 -63.13936 1225 ft 20 kts 325°
2026-04-23 20:33 -17.64582 -63.13996 1225 ft 16 kts 325°
2026-04-23 20:33 -17.64489 -63.13993 1225 ft 17 kts 56°
2026-04-23 20:33 -17.64418 -63.13887 1225 ft 19 kts 55°
2026-04-23 20:34 -17.64345 -63.13863 1225 ft 11 kts 331°
2026-04-23 20:34 -17.64268 -63.13912 1225 ft 14 kts 328°
2026-04-23 20:34 -17.64174 -63.13974 1225 ft 17 kts 328°
2026-04-23 20:34 -17.64066 -63.14047 1225 ft 20 kts 327°
2026-04-23 20:35 -17.63961 -63.14070 1225 ft 13 kts 39°
2026-04-23 20:35 -17.63897 -63.13961 1223 ft 20 kts 78°
2026-04-23 20:35 -17.63917 -63.13914 1223 ft 0 kts 148°
2026-04-23 20:36 -17.64241 -63.13695 1225 ft 108 kts 147°
2026-04-23 20:36 -17.65122 -63.13102 1360 ft 180 kts 146°
2026-04-23 20:36 -17.66187 -63.12380 2460 ft 192 kts 145°
2026-04-23 20:36 -17.67395 -63.11548 3502 ft 223 kts 145°
2026-04-23 20:37 -17.68904 -63.10834 4497 ft 254 kts 160°
2026-04-23 20:37 -17.70640 -63.10119 5517 ft 274 kts 154°
2026-04-23 20:37 -17.72216 -63.09212 6522 ft 253 kts 148°
2026-04-23 20:37 -17.73801 -63.08248 7494 ft 274 kts 150°
2026-04-23 20:38 -17.75509 -63.07310 8532 ft 287 kts 152°
2026-04-23 20:38 -17.77313 -63.06337 9614 ft 295 kts 152°
2026-04-23 20:38 -17.79162 -63.05310 10634 ft 308 kts 151°
2026-04-23 20:38 -17.81106 -63.04227 11709 ft 324 kts 152°
2026-04-23 20:39 -17.83140 -63.03100 12849 ft 335 kts 152°
2026-04-23 20:39 -17.85237 -63.01967 13981 ft 343 kts 156°
2026-04-23 20:39 -17.87571 -63.01519 15005 ft 349 kts 181°
2026-04-23 20:39 -17.90003 -63.01839 16088 ft 354 kts 191°
2026-04-23 20:40 -17.92443 -63.02315 17212 ft 361 kts 190°
2026-04-23 20:40 -17.94967 -63.02638 18362 ft 367 kts 184°
2026-04-23 20:40 -17.97530 -63.02732 19378 ft 371 kts 181°
2026-04-23 20:40 -18.00134 -63.02864 20437 ft 375 kts 184°
2026-04-23 20:41 -18.02748 -63.03111 21447 ft 380 kts 185°
2026-04-23 20:41 -18.05406 -63.03349 22441 ft 384 kts 184°
2026-04-23 20:41 -18.08051 -63.03533 23463 ft 387 kts 183°
2026-04-23 20:41 -18.10746 -63.03724 24357 ft 388 kts 184°
2026-04-23 20:42 -18.13443 -63.03941 25263 ft 389 kts 184°
2026-04-23 20:42 -18.16140 -63.04156 26196 ft 388 kts 184°
2026-04-23 20:42 -18.18841 -63.04361 27163 ft 387 kts 184°
2026-04-23 20:42 -18.21529 -63.04565 28144 ft 385 kts 184°
2026-04-23 20:43 -18.24164 -63.04770 29123 ft 383 kts 184°
2026-04-23 20:43 -18.26815 -63.04976 30116 ft 381 kts 184°
2026-04-23 20:43 -18.29455 -63.05179 30957 ft 378 kts 184°
2026-04-23 20:43 -18.32085 -63.05383 31787 ft 376 kts 185°
2026-04-23 20:44 -18.34696 -63.05584 32601 ft 374 kts 185°
2026-04-23 20:44 -18.37255 -63.05782 33391 ft 371 kts 185°
2026-04-23 20:44 -18.39828 -63.05981 34136 ft 369 kts 185°
2026-04-23 20:44 -18.42384 -63.06179 34780 ft 367 kts 185°
2026-04-23 20:45 -18.44931 -63.06375 35404 ft 366 kts 185°
2026-04-23 20:45 -18.47452 -63.06571 35945 ft 369 kts 185°
2026-04-23 20:45 -18.50081 -63.06775 35965 ft 388 kts 185°
2026-04-23 20:45 -18.52838 -63.06989 35972 ft 406 kts 185°
2026-04-23 20:46 -18.55725 -63.07212 35988 ft 424 kts 185°
2026-04-23 20:46 -18.58741 -63.07445 35987 ft 441 kts 185°
2026-04-23 20:46 -18.61825 -63.07684 35985 ft 457 kts 185°
2026-04-23 20:46 -18.65062 -63.07936 35985 ft 473 kts 185°
2026-04-23 20:47 -18.68404 -63.08195 35988 ft 488 kts 185°
2026-04-23 20:47 -18.71836 -63.08461 35983 ft 498 kts 185°
2026-04-23 20:47 -18.78758 -63.08998 35984 ft 502 kts 185°
2026-04-23 20:48 -18.85737 -63.09540 35977 ft 502 kts 185°
2026-04-23 20:48 -18.92685 -63.10081 35982 ft 502 kts 185°
2026-04-23 20:49 -18.99693 -63.10303 35980 ft 504 kts 178°
2026-04-23 20:49 -19.06671 -63.10030 35979 ft 504 kts 179°
2026-04-23 20:50 -19.13682 -63.09810 35984 ft 503 kts 179°
2026-04-23 20:50 -19.20708 -63.09555 35987 ft 504 kts 179°
2026-04-23 20:51 -19.27713 -63.09321 35991 ft 504 kts 179°
2026-04-23 20:51 -19.34697 -63.09075 35994 ft 503 kts 179°
2026-04-23 20:52 -19.41701 -63.08835 35995 ft 504 kts 179°
2026-04-23 20:52 -19.48696 -63.08591 36001 ft 504 kts 179°
2026-04-23 20:53 -19.55719 -63.08349 36004 ft 504 kts 179°
2026-04-23 20:53 -19.62698 -63.08107 36004 ft 504 kts 179°
2026-04-23 20:54 -19.68541 -63.07904 36007 ft 504 kts 179°
2026-04-23 20:54 -19.75574 -63.07660 36007 ft 504 kts 179°
2026-04-23 20:55 -19.82610 -63.07415 36008 ft 504 kts 179°
2026-04-23 20:55 -19.89592 -63.07172 36009 ft 504 kts 179°
2026-04-23 20:56 -19.96627 -63.06927 36011 ft 505 kts 180°
2026-04-23 20:56 -20.03617 -63.06683 36016 ft 505 kts 180°
2026-04-23 20:57 -20.10649 -63.06438 36017 ft 505 kts 180°
2026-04-23 20:57 -20.17680 -63.06193 36023 ft 505 kts 180°
2026-04-23 20:58 -20.24675 -63.05948 36025 ft 504 kts 180°
2026-04-23 20:58 -20.31711 -63.05702 36031 ft 505 kts 180°
2026-04-23 20:59 -20.38693 -63.05458 36034 ft 505 kts 180°
2026-04-23 20:59 -20.45742 -63.05211 36035 ft 505 kts 180°
2026-04-23 21:00 -20.52745 -63.04972 36036 ft 505 kts 180°
2026-04-23 21:00 -20.59796 -63.04737 36031 ft 506 kts 180°
2026-04-23 21:01 -20.66852 -63.04497 36035 ft 506 kts 180°
2026-04-23 21:01 -20.73858 -63.04262 36035 ft 506 kts 180°
2026-04-23 21:02 -20.80895 -63.04024 36039 ft 506 kts 180°
2026-04-23 21:02 -20.87947 -63.03786 36041 ft 506 kts 180°
2026-04-23 21:03 -20.94951 -63.03548 36041 ft 506 kts 181°
2026-04-23 21:03 -21.01995 -63.03310 36040 ft 505 kts 181°
2026-04-23 21:04 -21.09036 -63.03071 36042 ft 505 kts 181°
2026-04-23 21:04 -21.16032 -63.02834 36041 ft 505 kts 181°
2026-04-23 21:05 -21.23067 -63.02595 36040 ft 505 kts 181°
2026-04-23 21:05 -21.30058 -63.02357 36041 ft 505 kts 181°
2026-04-23 21:06 -21.37096 -63.02120 36039 ft 505 kts 181°
2026-04-23 21:06 -21.44128 -63.01885 36039 ft 505 kts 181°
2026-04-23 21:07 -21.51153 -63.01648 36045 ft 504 kts 181°
2026-04-23 21:07 -21.58134 -63.01414 36049 ft 504 kts 181°
2026-04-23 21:08 -21.65182 -63.01176 36048 ft 504 kts 181°
2026-04-23 21:08 -21.72173 -63.00941 36044 ft 504 kts 181°
2026-04-23 21:09 -21.79203 -63.00703 36049 ft 505 kts 181°
2026-04-23 21:09 -21.86218 -63.00466 36046 ft 505 kts 181°
2026-04-23 21:10 -21.93251 -63.00229 36049 ft 505 kts 181°
2026-04-23 21:10 -22.00277 -62.99932 36043 ft 507 kts 178°
2026-04-23 21:11 -22.07236 -62.98735 36043 ft 508 kts 174°
2026-04-23 21:11 -22.14266 -62.97562 36043 ft 509 kts 174°
2026-04-23 21:12 -22.21218 -62.96342 36045 ft 509 kts 174°
2026-04-23 21:12 -22.28232 -62.95146 36044 ft 510 kts 174°
2026-04-23 21:13 -22.35212 -62.93934 36043 ft 509 kts 174°
2026-04-23 21:13 -22.42235 -62.92726 36046 ft 509 kts 174°
2026-04-23 21:14 -22.49207 -62.91518 36045 ft 509 kts 174°
2026-04-23 21:14 -22.56222 -62.90305 36047 ft 509 kts 174°
2026-04-23 21:15 -22.63232 -62.89090 36049 ft 509 kts 174°
2026-04-23 21:15 -22.70197 -62.87882 36047 ft 509 kts 174°
2026-04-23 21:16 -22.77191 -62.86668 36045 ft 509 kts 174°
2026-04-23 21:16 -22.84210 -62.85448 36046 ft 509 kts 175°
2026-04-23 21:17 -22.91167 -62.84238 36047 ft 510 kts 175°
2026-04-23 21:17 -22.98180 -62.83016 36041 ft 510 kts 175°
2026-04-23 21:18 -23.05160 -62.81799 36046 ft 510 kts 175°
2026-04-23 21:18 -23.12180 -62.80574 36045 ft 510 kts 175°
2026-04-23 21:19 -23.19193 -62.79349 36046 ft 511 kts 175°
2026-04-23 21:19 -23.26245 -62.78116 36038 ft 511 kts 175°
2026-04-23 21:20 -23.33222 -62.76894 36041 ft 511 kts 175°
2026-04-23 21:20 -23.40264 -62.75660 36045 ft 511 kts 175°
2026-04-23 21:21 -23.47241 -62.74436 36044 ft 511 kts 175°
2026-04-23 21:21 -23.54253 -62.73204 36042 ft 511 kts 175°
2026-04-23 21:22 -23.61301 -62.71965 36044 ft 510 kts 175°
2026-04-23 21:22 -23.68282 -62.70736 36043 ft 511 kts 175°
2026-04-23 21:23 -23.75300 -62.69499 36045 ft 511 kts 175°
2026-04-23 21:23 -23.82341 -62.68258 36049 ft 511 kts 175°
2026-04-23 21:24 -23.89369 -62.67016 36047 ft 512 kts 175°
2026-04-23 21:24 -23.96374 -62.65778 36051 ft 512 kts 176°
2026-04-23 21:25 -24.03420 -62.64531 36048 ft 513 kts 176°
2026-04-23 21:25 -24.10490 -62.63278 36052 ft 513 kts 176°
2026-04-23 21:26 -24.17497 -62.62035 36052 ft 513 kts 176°
2026-04-23 21:26 -24.24553 -62.60782 36048 ft 513 kts 176°
2026-04-23 21:27 -24.31582 -62.59533 36051 ft 514 kts 176°
2026-04-23 21:27 -24.38663 -62.58272 36052 ft 514 kts 176°
2026-04-23 21:28 -24.45735 -62.57012 36049 ft 514 kts 176°
2026-04-23 21:28 -24.52767 -62.55758 36051 ft 514 kts 176°
2026-04-23 21:29 -24.59851 -62.54493 36054 ft 514 kts 176°
2026-04-23 21:29 -24.66921 -62.53228 36048 ft 514 kts 176°
2026-04-23 21:30 -24.73959 -62.51969 36050 ft 515 kts 176°
2026-04-23 21:30 -24.81034 -62.50704 36052 ft 515 kts 176°
2026-04-23 21:31 -24.88108 -62.49436 36052 ft 515 kts 176°
2026-04-23 21:31 -24.95149 -62.48173 36059 ft 515 kts 176°
2026-04-23 21:32 -25.02236 -62.46900 36050 ft 515 kts 177°
2026-04-23 21:32 -25.09323 -62.45627 36042 ft 515 kts 177°
2026-04-23 21:33 -25.16400 -62.44353 36050 ft 515 kts 177°
2026-04-23 21:33 -25.23438 -62.43085 36048 ft 516 kts 177°
2026-04-23 21:34 -25.30532 -62.41805 36053 ft 516 kts 177°
2026-04-23 21:34 -25.37596 -62.40526 36061 ft 516 kts 177°
2026-04-23 21:35 -25.44690 -62.39242 36053 ft 516 kts 177°
2026-04-23 21:35 -25.51793 -62.37954 36056 ft 517 kts 177°
2026-04-23 21:36 -25.62411 -62.36026 36050 ft 517 kts 177°
2026-04-23 21:37 -25.69536 -62.34730 36055 ft 517 kts 178°
2026-04-23 21:37 -25.76610 -62.33442 36054 ft 517 kts 178°
2026-04-23 21:38 -25.83734 -62.32143 36054 ft 517 kts 178°
2026-04-23 21:38 -25.90808 -62.30852 36054 ft 518 kts 178°
2026-04-23 21:39 -25.97926 -62.29551 36056 ft 518 kts 178°
2026-04-23 21:39 -26.05051 -62.28247 36058 ft 518 kts 178°
2026-04-23 21:40 -26.10976 -62.27162 36055 ft 518 kts 178°
2026-04-23 21:40 -26.19269 -62.25641 36057 ft 519 kts 178°
2026-04-23 21:41 -26.26355 -62.24339 36058 ft 519 kts 178°
2026-04-23 21:41 -26.32290 -62.23249 36058 ft 519 kts 178°
2026-04-23 21:42 -26.40588 -62.21721 36059 ft 519 kts 178°
2026-04-23 21:42 -26.46501 -62.20631 36061 ft 518 kts 178°
2026-04-23 21:43 -26.53632 -62.19315 36057 ft 518 kts 178°
2026-04-23 21:43 -26.60775 -62.17995 36057 ft 518 kts 178°
2026-04-23 21:44 -26.67846 -62.16687 36057 ft 518 kts 179°
2026-04-23 21:44 -26.74977 -62.15366 36061 ft 518 kts 179°
2026-04-23 21:45 -26.82113 -62.14043 36060 ft 519 kts 179°
2026-04-23 21:45 -26.89194 -62.12728 36059 ft 519 kts 179°
2026-04-23 21:46 -26.96332 -62.11400 36061 ft 519 kts 179°
2026-04-23 21:46 -27.03479 -62.10070 36056 ft 519 kts 179°
2026-04-23 21:47 -27.10575 -62.08747 36059 ft 519 kts 179°
2026-04-23 21:47 -27.17730 -62.07411 36058 ft 520 kts 179°
2026-04-23 21:48 -27.24872 -62.06077 36067 ft 520 kts 179°
2026-04-23 21:48 -27.31974 -62.04747 36061 ft 520 kts 179°
2026-04-23 21:49 -27.39136 -62.03405 36064 ft 520 kts 179°
2026-04-23 21:49 -27.46256 -62.02069 36065 ft 520 kts 179°
2026-04-23 21:50 -27.53424 -62.00722 36064 ft 521 kts 179°
2026-04-23 21:50 -27.60535 -61.99384 36063 ft 521 kts 179°
2026-04-23 21:51 -27.67706 -61.98033 36071 ft 522 kts 180°
2026-04-23 21:51 -27.74880 -61.96680 36062 ft 521 kts 180°
2026-04-23 21:52 -27.82003 -61.95335 36071 ft 521 kts 180°
2026-04-23 21:52 -27.89167 -61.93980 36072 ft 521 kts 180°
2026-04-23 21:53 -27.96325 -61.92624 36071 ft 521 kts 180°
2026-04-23 21:53 -28.03464 -61.91270 36072 ft 521 kts 180°
2026-04-23 21:54 -28.10649 -61.89906 36069 ft 522 kts 180°
2026-04-23 21:54 -28.17818 -61.88542 36070 ft 522 kts 180°
2026-04-23 21:55 -28.24958 -61.87182 36069 ft 523 kts 180°
2026-04-23 21:55 -28.32151 -61.85811 36074 ft 522 kts 180°
2026-04-23 21:56 -28.39339 -61.84438 36072 ft 523 kts 180°
2026-04-23 21:56 -28.46500 -61.83069 36080 ft 524 kts 180°
2026-04-23 21:57 -28.53691 -61.81890 36074 ft 520 kts 183°
2026-04-23 21:57 -28.60847 -61.80834 36078 ft 521 kts 182°
2026-04-23 21:58 -28.68065 -61.79745 36081 ft 520 kts 183°
2026-04-23 21:58 -28.75207 -61.78683 36078 ft 521 kts 183°
2026-04-23 21:59 -28.82403 -61.77601 36080 ft 521 kts 183°
2026-04-23 21:59 -28.89618 -61.76521 36077 ft 522 kts 183°
2026-04-23 22:00 -29.00411 -61.74898 36081 ft 523 kts 183°
2026-04-23 22:00 -29.07609 -61.73815 36074 ft 525 kts 183°
2026-04-23 22:01 -29.14834 -61.72722 36085 ft 523 kts 183°
2026-04-23 22:01 -29.22079 -61.71631 36081 ft 523 kts 183°
2026-04-23 22:02 -29.29276 -61.70541 36086 ft 524 kts 183°
2026-04-23 22:02 -29.36534 -61.69444 36083 ft 524 kts 183°
2026-04-23 22:03 -29.43730 -61.68354 36086 ft 525 kts 183°
2026-04-23 22:03 -29.50992 -61.67254 36087 ft 526 kts 184°
2026-04-23 22:04 -29.58241 -61.66153 36083 ft 527 kts 184°
2026-04-23 22:04 -29.65489 -61.65051 36084 ft 526 kts 184°
2026-04-23 22:05 -29.72779 -61.63941 36087 ft 527 kts 184°
2026-04-23 22:05 -29.80021 -61.62837 36089 ft 527 kts 184°
2026-04-23 22:06 -29.87312 -61.61723 36090 ft 527 kts 184°
2026-04-23 22:06 -29.94568 -61.60614 36077 ft 528 kts 184°
2026-04-23 22:07 -30.01878 -61.59494 36092 ft 529 kts 184°
2026-04-23 22:07 -30.09179 -61.58374 36084 ft 529 kts 184°
2026-04-23 22:08 -30.16457 -61.57257 36085 ft 530 kts 184°
2026-04-23 22:08 -30.23748 -61.56134 36093 ft 530 kts 184°
2026-04-23 22:09 -30.31075 -61.55006 36090 ft 530 kts 184°
2026-04-23 22:09 -30.38359 -61.53881 36092 ft 530 kts 184°
2026-04-23 22:10 -30.45678 -61.52751 36091 ft 531 kts 184°
2026-04-23 22:10 -30.53007 -61.51616 36095 ft 531 kts 184°
2026-04-23 22:11 -30.60354 -61.50466 36099 ft 531 kts 184°
2026-04-23 22:11 -30.67691 -61.49318 36094 ft 531 kts 184°
2026-04-23 22:12 -30.74992 -61.48177 36095 ft 532 kts 184°
2026-04-23 22:12 -30.82346 -61.47037 36093 ft 532 kts 184°
2026-04-23 22:13 -30.89714 -61.45885 36099 ft 533 kts 184°
2026-04-23 22:13 -30.97023 -61.44745 36102 ft 533 kts 184°
2026-04-23 22:14 -31.04400 -61.43591 36102 ft 533 kts 184°
2026-04-23 22:14 -31.11757 -61.42439 36109 ft 533 kts 184°
2026-04-23 22:15 -31.19116 -61.41284 36105 ft 533 kts 183°
2026-04-23 22:15 -31.26449 -61.40132 36110 ft 533 kts 183°
2026-04-23 22:16 -31.33821 -61.38399 36106 ft 551 kts 172°
2026-04-23 22:16 -31.41124 -61.35617 36111 ft 551 kts 172°
2026-04-23 22:17 -31.48415 -61.32965 36108 ft 549 kts 174°
2026-04-23 22:17 -31.52058 -61.31503 36103 ft 560 kts 166°
2026-04-23 22:17 -31.55565 -61.29424 36102 ft 567 kts 159°
2026-04-23 22:18 -31.62534 -61.25091 36114 ft 569 kts 158°
2026-04-23 22:18 -31.69330 -61.20254 36116 ft 569 kts 157°
2026-04-23 22:19 -31.76198 -61.15799 36124 ft 568 kts 158°
2026-04-23 22:19 -31.83032 -61.11064 36119 ft 569 kts 157°
2026-04-23 22:20 -31.89922 -61.06471 36106 ft 567 kts 158°
2026-04-23 22:20 -31.96737 -61.01806 36109 ft 568 kts 157°
2026-04-23 22:21 -32.03587 -60.97175 36111 ft 567 kts 158°
2026-04-23 22:21 -32.10446 -60.92495 36120 ft 568 kts 157°
2026-04-23 22:22 -32.17256 -60.87857 36127 ft 567 kts 158°
2026-04-23 22:22 -32.24112 -60.83174 36124 ft 568 kts 157°
2026-04-23 22:23 -32.30956 -60.78490 36129 ft 567 kts 158°
2026-04-23 22:23 -32.37752 -60.73834 36129 ft 567 kts 157°
2026-04-23 22:24 -32.44586 -60.69139 36132 ft 567 kts 158°
2026-04-23 22:24 -32.51389 -60.64463 36132 ft 567 kts 157°
2026-04-23 22:25 -32.58226 -60.59750 36129 ft 567 kts 158°
2026-04-23 22:25 -32.65055 -60.55037 36133 ft 567 kts 158°
2026-04-23 22:26 -32.70722 -60.51118 36137 ft 567 kts 158°
2026-04-23 22:26 -32.78145 -60.45978 36137 ft 567 kts 158°
2026-04-23 22:27 -32.83826 -60.42036 36137 ft 566 kts 158°
2026-04-23 22:27 -32.91750 -60.36530 36141 ft 566 kts 158°
2026-04-23 22:28 -32.97405 -60.32591 36138 ft 566 kts 158°
2026-04-23 22:28 -33.05381 -60.27202 36143 ft 562 kts 161°
2026-04-23 22:29 -33.11185 -60.23550 36147 ft 565 kts 158°
2026-04-23 22:29 -33.17847 -60.18566 36148 ft 567 kts 156°
2026-04-23 22:30 -33.24674 -60.13936 35845 ft 560 kts 159°
2026-04-23 22:30 -33.27929 -60.11385 35360 ft 557 kts 149°
2026-04-23 22:30 -33.30847 -60.08361 34880 ft 552 kts 140°
2026-04-23 22:31 -33.33482 -60.05103 34416 ft 551 kts 139°
2026-04-23 22:31 -33.36214 -60.01779 33812 ft 569 kts 138°
2026-04-23 22:31 -33.38924 -59.98302 33145 ft 570 kts 135°
2026-04-23 22:31 -33.41575 -59.94758 32454 ft 571 kts 135°
2026-04-23 22:32 -33.44281 -59.91265 31648 ft 570 kts 137°
2026-04-23 22:32 -33.47020 -59.87845 30815 ft 566 kts 137°
2026-04-23 22:32 -33.49716 -59.84403 30041 ft 564 kts 136°
2026-04-23 22:32 -33.52323 -59.80979 29230 ft 564 kts 135°
2026-04-23 22:33 -33.54982 -59.77525 28426 ft 562 kts 136°
2026-04-23 22:33 -33.57664 -59.74109 27673 ft 558 kts 136°
2026-04-23 22:33 -33.60293 -59.70733 27463 ft 555 kts 136°
2026-04-23 22:33 -33.62921 -59.67312 27232 ft 555 kts 136°
2026-04-23 22:34 -33.65532 -59.63918 27151 ft 552 kts 136°
2026-04-23 22:34 -33.68159 -59.60533 27154 ft 554 kts 136°
2026-04-23 22:34 -33.70749 -59.57186 27157 ft 553 kts 136°
2026-04-23 22:34 -33.73390 -59.53747 27156 ft 554 kts 136°
2026-04-23 22:35 -33.75936 -59.50428 27155 ft 535 kts 136°
2026-04-23 22:35 -33.78382 -59.47241 27160 ft 500 kts 136°
2026-04-23 22:35 -33.80660 -59.44278 27157 ft 468 kts 137°
2026-04-23 22:35 -33.82823 -59.41469 27140 ft 446 kts 137°
2026-04-23 22:36 -33.84931 -59.38733 26767 ft 446 kts 137°
2026-04-23 22:36 -33.87016 -59.36016 26377 ft 444 kts 137°
2026-04-23 22:36 -33.89110 -59.33277 25820 ft 446 kts 137°
2026-04-23 22:36 -33.91216 -59.30525 25182 ft 444 kts 137°
2026-04-23 22:37 -33.93308 -59.27790 24563 ft 440 kts 137°
2026-04-23 22:37 -33.95372 -59.25088 23951 ft 435 kts 137°
2026-04-23 22:37 -33.97362 -59.22476 23250 ft 416 kts 137°
2026-04-23 22:37 -33.99231 -59.20019 22496 ft 378 kts 137°
2026-04-23 22:38 -34.00918 -59.17796 21734 ft 342 kts 137°
2026-04-23 22:38 -34.02489 -59.15750 20975 ft 331 kts 138°
2026-04-23 22:38 -34.04088 -59.13679 20205 ft 343 kts 137°
2026-04-23 22:38 -34.05720 -59.11531 19466 ft 351 kts 136°
2026-04-23 22:39 -34.07349 -59.09374 18920 ft 351 kts 136°
2026-04-23 22:39 -34.08856 -59.07048 18382 ft 353 kts 124°
2026-04-23 22:39 -34.09865 -59.04352 17781 ft 353 kts 108°
2026-04-23 22:39 -34.10318 -59.01471 17261 ft 343 kts 95°
2026-04-23 22:40 -34.10463 -58.98624 16757 ft 339 kts 91°
2026-04-23 22:40 -34.10540 -58.95789 16255 ft 336 kts 90°
2026-04-23 22:40 -34.10642 -58.90207 15280 ft 329 kts 90°
2026-04-23 22:41 -34.10683 -58.87459 14804 ft 326 kts 90°
2026-04-23 22:41 -34.10718 -58.84770 14334 ft 319 kts 90°
2026-04-23 22:41 -34.10748 -58.82105 13884 ft 316 kts 90°
2026-04-23 22:41 -34.10774 -58.79454 13385 ft 313 kts 90°
2026-04-23 22:42 -34.10799 -58.76840 12896 ft 310 kts 90°
2026-04-23 22:42 -34.10826 -58.74251 12412 ft 307 kts 90°
2026-04-23 22:42 -34.10854 -58.71678 11936 ft 304 kts 90°
2026-04-23 22:42 -34.10883 -58.69166 11481 ft 302 kts 90°
2026-04-23 22:43 -34.10916 -58.66620 11016 ft 299 kts 90°
2026-04-23 22:43 -34.10948 -58.64114 10559 ft 296 kts 90°
2026-04-23 22:43 -34.11010 -58.61657 10319 ft 286 kts 94°
2026-04-23 22:43 -34.11464 -58.59326 9644 ft 292 kts 111°
2026-04-23 22:44 -34.12479 -58.57181 8906 ft 297 kts 129°
2026-04-23 22:44 -34.13967 -58.55453 8179 ft 297 kts 146°
2026-04-23 22:44 -34.15783 -58.54296 7427 ft 296 kts 162°
2026-04-23 22:44 -34.17791 -58.53751 6694 ft 294 kts 175°
2026-04-23 22:45 -34.19831 -58.53776 5929 ft 292 kts 188°
2026-04-23 22:45 -34.21789 -58.54162 5485 ft 280 kts 192°
2026-04-23 22:45 -34.23640 -58.54617 5245 ft 254 kts 192°
2026-04-23 22:45 -34.25307 -58.54988 5017 ft 253 kts 191°
2026-04-23 22:46 -34.27000 -58.55347 4864 ft 242 kts 190°
2026-04-23 22:46 -34.28612 -58.55692 4698 ft 232 kts 191°
2026-04-23 22:46 -34.30147 -58.56024 4537 ft 217 kts 191°
2026-04-23 22:46 -34.31614 -58.56343 4369 ft 211 kts 191°
2026-04-23 22:47 -34.33006 -58.56642 4197 ft 201 kts 190°
2026-04-23 22:47 -34.34363 -58.56939 4148 ft 192 kts 190°
2026-04-23 22:47 -34.35658 -58.57215 4152 ft 186 kts 191°
2026-04-23 22:47 -34.36924 -58.57492 4145 ft 186 kts 191°
2026-04-23 22:48 -34.38211 -58.57768 4147 ft 191 kts 191°
2026-04-23 22:48 -34.39543 -58.58060 4154 ft 200 kts 191°
2026-04-23 22:48 -34.40921 -58.58356 4153 ft 202 kts 190°
2026-04-23 22:48 -34.42317 -58.58660 4036 ft 204 kts 191°
2026-04-23 22:49 -34.43712 -58.58916 3853 ft 202 kts 183°
2026-04-23 22:49 -34.45088 -58.58678 3667 ft 204 kts 165°
2026-04-23 22:49 -34.46382 -58.57949 3436 ft 207 kts 148°
2026-04-23 22:49 -34.47441 -58.56754 3168 ft 207 kts 130°
2026-04-23 22:50 -34.48209 -58.55350 2909 ft 197 kts 126°
2026-04-23 22:50 -34.48967 -58.54012 2580 ft 178 kts 127°
2026-04-23 22:50 -34.49653 -58.52793 2206 ft 160 kts 127°
2026-04-23 22:50 -34.50257 -58.51713 1864 ft 150 kts 127°
2026-04-23 22:51 -34.50834 -58.50691 1650 ft 149 kts 125°
2026-04-23 22:51 -34.51394 -58.49683 1451 ft 140 kts 122°
2026-04-23 22:51 -34.51902 -58.48697 1237 ft 137 kts 121°
2026-04-23 22:51 -34.52442 -58.47732 1027 ft 139 kts 125°
2026-04-23 22:52 -34.53019 -58.46788 847 ft 137 kts 122°
2026-04-23 22:52 -34.53549 -58.45848 668 ft 137 kts 120°
2026-04-23 22:52 -34.54078 -58.44906 481 ft 133 kts 120°
2026-04-23 22:52 -34.54594 -58.43993 308 ft 131 kts 120°
2026-04-23 22:53 -34.55116 -58.43039 170 ft 139 kts 120°
2026-04-23 22:53 -34.55525 -58.42278 562 ft 134 kts 118°
2026-04-23 22:53 -34.55888 -58.41475 734 ft 155 kts 112°
2026-04-23 22:53 -34.56423 -58.40166 1411 ft 180 kts 117°
2026-04-23 22:54 -34.56942 -58.38840 1816 ft 179 kts 114°
2026-04-23 22:54 -34.57184 -58.38028 2135 ft 168 kts 108°
2026-04-23 22:54 -34.57248 -58.37780 2216 ft 168 kts 109°
2026-04-23 22:54 -34.57569 -58.36331 2190 ft 190 kts 103°
2026-04-23 22:55 -34.57741 -58.34695 2289 ft 197 kts 96°
2026-04-23 22:55 -34.57853 -58.33035 2490 ft 197 kts 98°
2026-04-23 22:55 -34.58000 -58.31397 2674 ft 198 kts 99°
2026-04-23 22:55 -34.58113 -58.29667 2680 ft 208 kts 90°
2026-04-23 22:56 -34.57744 -58.27956 2692 ft 218 kts 65°
2026-04-23 22:56 -34.56800 -58.26485 2678 ft 231 kts 41°
2026-04-23 22:56 -34.55360 -58.25466 2681 ft 249 kts 19°
2026-04-23 22:56 -34.53607 -58.25098 2693 ft 262 kts 359°
2026-04-23 22:57 -34.51805 -58.25461 2692 ft 270 kts 339°
2026-04-23 22:57 -34.50156 -58.26531 2700 ft 262 kts 320°
2026-04-23 22:57 -34.48967 -58.28010 2687 ft 230 kts 306°
2026-04-23 22:57 -34.48021 -58.29464 2674 ft 208 kts 304°
2026-04-23 22:58 -34.47161 -58.30783 2668 ft 191 kts 304°
2026-04-23 22:58 -34.46370 -58.32003 2667 ft 177 kts 303°
2026-04-23 22:58 -34.45601 -58.33173 2674 ft 186 kts 304°
2026-04-23 22:58 -34.44750 -58.34459 2680 ft 204 kts 305°
2026-04-23 22:59 -34.43860 -58.35832 2688 ft 210 kts 304°
2026-04-23 22:59 -34.42958 -58.37229 2690 ft 212 kts 304°
2026-04-23 22:59 -34.42048 -58.38649 2691 ft 213 kts 304°
2026-04-23 22:59 -34.41140 -58.40063 2690 ft 213 kts 304°
2026-04-23 23:00 -34.40255 -58.41498 2674 ft 212 kts 297°
2026-04-23 23:00 -34.39801 -58.43139 2672 ft 206 kts 272°
2026-04-23 23:00 -34.39951 -58.44832 2671 ft 202 kts 248°
2026-04-23 23:00 -34.40666 -58.46273 2666 ft 198 kts 224°
2026-04-23 23:01 -34.41803 -58.47187 2670 ft 197 kts 200°
2026-04-23 23:01 -34.43155 -58.47420 2667 ft 198 kts 176°
2026-04-23 23:01 -34.44496 -58.47156 2665 ft 196 kts 177°
2026-04-23 23:01 -34.45759 -58.47356 2669 ft 171 kts 194°
2026-04-23 23:02 -34.46857 -58.47663 2549 ft 157 kts 192°
2026-04-23 23:02 -34.47928 -58.47940 2410 ft 156 kts 192°
2026-04-23 23:02 -34.48917 -58.48205 2304 ft 143 kts 192°
2026-04-23 23:02 -34.49891 -58.48275 2162 ft 141 kts 172°
2026-04-23 23:03 -34.50831 -58.47965 1954 ft 141 kts 164°
2026-04-23 23:03 -34.51734 -58.47500 1774 ft 142 kts 155°
2026-04-23 23:03 -34.52554 -58.46901 1358 ft 132 kts 145°
2026-04-23 23:03 -34.53231 -58.46126 970 ft 138 kts 135°
2026-04-23 23:04 -34.53856 -58.45253 674 ft 140 kts 127°
2026-04-23 23:04 -34.54404 -58.44315 414 ft 136 kts 118°
2026-04-23 23:04 -34.54929 -58.43374 256 ft 137 kts 122°
2026-04-23 23:04 -34.55436 -58.42439 49 ft 127 kts 120°
2026-04-23 23:05 -34.55870 -58.41667 21 ft 84 kts 123°
2026-04-23 23:05 -34.56078 -58.41296 21 ft 13 kts 125°
2026-04-23 23:05 -34.56159 -58.41150 23 ft 15 kts 125°
2026-04-23 23:05 -34.56211 -58.41096 24 ft 9 kts 187°
2026-04-23 23:06 -34.56268 -58.41135 21 ft 0 kts 214°
2026-04-23 23:08 -34.56330 -58.41188 21 ft 17 kts 221°
2026-04-23 23:08 -34.56309 -58.41271 21 ft 21 kts 304°
2026-04-23 23:08 -34.56255 -58.41364 22 ft 2 kts 304°
2026-04-23 23:08 -34.56240 -58.41382 22 ft 1 kts 360°
2026-04-23 23:09 -34.56217 -58.41362 21 ft 0 kts 34°